Location: Squirrel Cove
(50.1074°N, 124.9139°W)
Time: 13:48:06
(UTC-07:00)

PCSat - Pass Details

Date: 29 May 2022
Orbit: 784 x 795 km, 67.1° (Epoch: 26 June)

Event Time Altitude Azimuth Distance (km) Brightness Sun altitude
Rises 04:00:50 0° 308° (NW) 3,304 12.8 -9.6°
Reaches altitude 10° 04:05:13 10° 275° (W) 2,366 11.7 -9.2°
Maximum altitude 04:06:42 11° 259° (WSW) 2,285 11.5 -9.0°
Drops below altitude 10° 04:08:11 10° 243° (WSW) 2,361 11.5 -8.9°
Enters shadow 04:08:34 - 239° (WSW) 2,404 11.5 -8.8°
